Regional Weather Roundup
Issued by NWS

Home | Current Version | Previous Version | Text Only | Print | Product List | Glossary On
Versions: 1 2 3 4 5 6 7 8 9 10 11 12 13 14 15 16 17 18 19 20 21 22 23 24 25 26 27 28 29 30 31 32 33 34 35 36 37 38 39 40 41 42 43 44 45 46 47 48 49
000
ASUS42 KFFC 302203
RWRGA
WEATHER ROUNDUP FOR GEORGIA
NATIONAL WEATHER SERVICE PEACHTREE CITY GA
600 PM EDT TUE SEP 30 2014

NOTE: "FAIR" INDICATES FEW OR NO CLOUDS BELOW 12,000 FEET WITH NO
SIGNIFICANT WEATHER AND/OR OBSTRUCTIONS TO VISIBILITY.

* = USE WITH CAUTION. THE STATIONS MARKED WITH AN ASTERISK MAY NOT
REPORT WEATHER SUCH AS PRECIPITATION, FOG, OR THUNDER AND ARE NOT
QUALITY CONTROLLED BY NWS.

THE REMARK "TC" DENOTES TEMPERATURE READING IN DEGREES CELSIUS.

GAZ001>058-302300-
NORTH GEORGIA

CITY           SKY/WX    TMP DP  RH WIND       PRES   REMARKS
ATLANTA        MOSUNNY   83  58  42 CALM      29.89S
ATHENS         SUNNY     80  61  52 CALM      29.88F
CHAMBLEE       MOSUNNY   81  58  45 N6        29.89S
PEACHTREE CITY PTSUNNY   82  62  50 E5        29.89S
ROME           SUNNY     84  59  42 N3        29.88S
WEST ATLANTA   MOSUNNY   83  60  45 N5        29.88S
GAINESVILLE    SUNNY     79  59  50 S5        29.91S
CARTERSVILLE   SUNNY     83  56  39 CALM      29.88F


CITY           SKY/WX    TMP DP  RH WIND       PRES   REMARKS
DALTON*        SUNNY     81  61  50 CALM      29.89F
LAWRENCEVILLE* MOSUNNY   81  55  41 CALM      29.89S
MARIETTA       PTSUNNY   81  58  45 NW6       29.89F
KENNESAW*      MOSUNNY   81  57  44 NW6       29.91S
$$

GAZ059>098-102>109-302300-
CENTRAL GEORGIA

CITY           SKY/WX    TMP DP  RH WIND       PRES   REMARKS
AUGUSTA-BUSH   SUNNY     80  61  52 CALM      29.85R
AUGUSTA-DANIEL SUNNY     82  62  50 NW5       29.87S
COLUMBUS       MOSUNNY   79  65  62 E5        29.87S
MACON          MOSUNNY   75  66  73 S3        29.88S
ROBINS AFB     MOSUNNY   77  66  67 SW3       29.88S


CITY           SKY/WX    TMP DP  RH WIND       PRES   REMARKS
LAGRANGE*      SUNNY     83  68  60 CALM      29.89S
SYLVANIA*      SUNNY     83  69  60 NE3       29.86S
MILLEDGEVILLE* PTSUNNY   79  68  69 CALM      29.86F
$$

GAZ099>101-110>166-302300-
SOUTH GEORGIA

CITY           SKY/WX    TMP DP  RH WIND       PRES   REMARKS
SAVANNAH       MOSUNNY   83  65  54 NE5       29.85R
VALDOSTA       CLOUDY    76  69  79 NE3       29.86R
ALMA           CLOUDY    77  68  73 N3        29.86R
ST SIMONS      SUNNY     78  66  66 NE8       29.85R
FT STEWART     PTSUNNY   81  65  59 VRB1      29.84S
ALBANY         CLOUDY    77  67  71 NE3       29.89S
HUNTER AFB     PTSUNNY   81  67  64 E3        29.83R
MOODY AFB      CLOUDY    77  69  76 NE2       29.86R
BRUNSWICK      SUNNY     79  66  65 N5        29.86R


CITY           SKY/WX    TMP DP  RH WIND       PRES   REMARKS
BAINBRIDGE*    CLOUDY    79  70  73 N5        29.87R
MOULTRIE*      CLOUDY    77  70  78 N6        29.87R
VIDALIA*       CLOUDY    79  68  69 NW5       29.86S
WAYCROSS*      CLOUDY    80  73  78 NE3       29.85R
DOUGLAS*       CLOUDY    79  68  69 NE7       29.88R
$$



USA.gov is the U.S. government's official web portal to all federal, state and local government web resources and services.